Location: Azul
(36.7830°S, 59.8500°W)
Time: 20:37:59
(UTC-03:00)

ISS - Pass Details

Date: 28 June 2017
Orbit: 401 x 408 km, 51.6° (Epoch: 17 August)

Event Time Altitude Azimuth Distance (km) Brightness Sun altitude
Rises 20:00:50 0° 296° (WNW) 2,341 1.3 -24.9°
Reaches altitude 10° 20:02:59 10° 288° (WNW) 1,484 0.1 -25.3°
Enters shadow 20:05:00 29° 263° (W) 791 -1.8 -25.7°
